Regional Weather Roundup
Issued by NWS Kansas City/Pleasant Hill, MO

Home | Current Version | Previous Version | Graphics & Text | Print | Product List | Glossary Off
Versions: 1 2 3 4 5 6 7 8 9 10 11 12 13 14 15 16 17 18 19 20 21 22 23 24 25 26 27 28 29 30 31 32 33 34 35 36 37 38 39 40 41 42 43 44 45 46 47 48 49 50

000
ASUS43 KEAX 292110
RWREAX

WEATHER ROUNDUP FOR EASTERN KANSAS AND NORTHWEST MISSOURI
NATIONAL WEATHER SERVICE KANSAS CITY/PLEASANT HILL MO
400 PM CDT SAT APR 29 2017

KSZ040-057-103>105-MOZ028-029-037-043-292200-
...KANSAS CITY METROPOLITAN AREA...

CITY           SKY/WX    TMP DP  RH WIND       PRES   REMARKS
K.C. INTL      LGT RAIN  48  46  93 E22G36    29.67F
K.C. DOWNTOWN  LGT RAIN  50  48  93 E21G43    29.67F
LEES SUMMIT    LGT RAIN  48  48 100 E30G41    29.72F
OLATHE - IXD   LGT RAIN  50  48  93 E23G33    29.66F
OLATHE - OJC   LGT RAIN  48  48 100 E20G30    29.67F
LAWRENCE       LGT RAIN  50  49  96 NE10      29.73R

$$

MOZ001>008-011>017-020>025-030>033-038>040-044>046-053-054-292200-
...NORTHERN AND CENTRAL MISSOURI...

CITY           SKY/WX    TMP DP  RH WIND       PRES   REMARKS
ST. JOSEPH     CLOUDY    47  45  93 E18G36    29.76F
MOSBY          LGT RAIN  46  46 100 E26       29.72F
WHITEMAN AFB   TSTM      48  48 100 NE17G24   29.74F
CLINTON        LGT RAIN  48  48 100 E18G31    29.75F
SEDALIA        LGT RAIN  49  49 100 NE20G26   29.81F
WARSAW         NOT AVBL
CHILLICOTHE      N/A     45  43  93 NE17G26   29.88F
KIRKSVILLE     CLOUDY    43  30  60 NE18      29.95S WCI  35

$$

MOZ041-047>049-056>058-063>065-088>090-097-292200-
...EASTERN AND SOUTHERN MISSOURI...

CITY           SKY/WX    TMP DP  RH WIND       PRES   REMARKS
ST. LOUIS INTL TSTM      66  63  90 SW15      29.78R FOG
SPIRIT OF STL  TSTM      65  64  97 SW8G18    29.74R FOG
COLUMBIA       TSTM      49  48  97 N20       29.81F
JEFFERSON CITY RAIN      53  49  86 NE8G21    29.81F
ROLLA          RAIN      59  59 100 W3        29.81R FOG
OSAGE BEACH    TSTM      54  54 100 NE6       29.81R
SPRINGFIELD    TSTM      61  59  93 W6        29.76R FOG
BRANSON        TSTM      64  64 100 S9G18     29.70F FOG
JOPLIN         TSTM      54  53  97 NE17      29.72S FOG
WEST PLAINS    TSTM      64  62  93 NW15      29.75F FOG

$$

IAZ060-094-KSZ022-034>040-054-083-096-NEZ052-066-093-292200-
...KANSAS...SOUTHEAST NEBRASKA AND IOWA...

CITY           SKY/WX    TMP DP  RH WIND       PRES   REMARKS
TOPEKA         LGT RAIN  49  49 100 N10       29.76R
MANHATTAN      LGT RAIN  47  47 100 NE22G28   29.82S FOG
EMPORIA        LGT RAIN  48  48 100 NW12      29.76R
CHANUTE        TSTM      56  53  90 E16       29.67S
WICHITA        CLOUDY    47  46  97 N14G23    29.76R FOG
OMAHA          CLOUDY    46  36  68 NE25G35   29.99F
LINCOLN        CLOUDY    46  37  71 NE25G35   29.98R
FALLS CITY     CLOUDY    46  43  89 NE18G28   29.85R
LAMONI         CLOUDY    43  41  93 NE20G30   29.95F WCI  34
DES MOINES     CLOUDY    44  39  82 NE20G26   30.05F

$$




USA.gov is the U.S. government's official web portal to all federal, state and local government web resources and services.